Theta_e
300 299 299 298 297 297 296 295 294 293 293 293 292 291 291 290 290 290 290 289 289 289 289 288 288 287 285 284 284 284 284 283 283 283 283 282 282 282 281 281 282 282 281 281 281 281 281 281 282 282 282 281 280 279 279 278 277 278 278 278 277 277 276 277 277 277 277 277 277
299 298 297 296 295 295 295 294 293 293 293 293 292 292 291 291 290 290 289 289 289 289 289 288 286 286 285 284 284 284 284 283 283 283 283 282 282 282 282 282 282 282 282 281 281 281 281 281 282 282 282 281 280 279 278 278 277 277 278 278 277 277 277 277 277 276 276 276 276
298 297 296 296 295 295 295 294 294 293 292 291 292 292 291 291 291 290 290 289 288 288 288 288 286 285 284 284 284 284 284 284 283 283 283 282 282 281 281 282 281 281 281 282 281 281 281 281 282 282 283 282 280 280 279 278 277 278 278 277 277 278 278 279 277 276 276 277 275
297 297 296 296 295 295 295 295 294 292 292 292 291 290 291 291 291 290 289 288 288 288 288 288 286 286 285 285 284 284 284 284 284 283 283 282 281 281 281 281 281 281 281 281 281 280 280 281 282 282 282 280 280 280 280 278 277 278 278 278 277 278 278 279 277 277 277 277 275
297 297 297 296 295 295 295 295 294 292 292 292 291 291 291 290 290 290 289 288 289 289 288 287 287 286 286 285 284 284 284 283 284 284 283 282 281 281 281 281 281 281 281 280 280 280 280 281 282 282 281 280 280 280 279 277 277 277 278 278 278 278 278 278 278 278 278 277 276
297 297 296 296 295 294 294 294 293 293 292 292 291 291 291 291 290 290 289 289 289 288 287 287 286 286 285 284 284 284 283 283 283 283 283 282 281 281 281 281 281 281 281 280 280 280 280 280 282 281 280 280 279 278 277 276 276 277 277 278 278 278 277 277 278 277 277 276 275
297 297 296 295 295 294 294 293 293 292 292 292 291 291 291 290 290 290 289 289 288 288 287 287 287 286 285 285 284 284 284 284 283 283 283 282 281 281 281 281 281 281 281 281 280 280 280 280 282 282 281 280 280 277 276 275 276 277 277 277 277 277 276 275 276 276 276 275 275
297 297 296 295 295 294 294 293 293 293 292 292 291 291 290 290 290 289 289 289 288 288 288 288 287 286 286 285 285 285 284 283 283 283 282 283 281 281 281 280 280 280 280 280 281 280 280 281 282 281 280 280 280 278 276 275 276 276 277 277 277 275 274 273 273 274 275 274 274
297 296 296 295 295 295 294 293 293 293 292 292 292 291 291 290 290 290 289 289 289 288 288 288 287 286 286 286 285 285 284 284 283 283 283 283 282 281 281 280 280 280 280 280 280 281 281 281 281 281 280 281 280 278 276 275 276 276 276 276 275 274 273 272 272 273 273 274 275
296 296 295 295 295 294 294 294 293 293 293 292 292 291 291 290 290 290 290 290 289 288 288 288 287 286 286 286 286 285 285 285 284 284 283 283 282 282 281 281 281 281 280 280 280 281 281 282 281 280 279 279 278 277 276 276 276 276 276 276 275 274 273 272 271 272 273 274 275
296 295 295 295 294 294 294 293 293 293 293 292 292 291 291 290 290 290 290 290 289 288 288 287 287 286 286 286 286 286 286 285 285 285 284 283 283 282 282 282 281 281 281 281 281 281 282 282 281 280 279 278 277 277 276 276 276 276 276 274 274 274 274 273 271 272 272 273 274
296 295 295 295 294 294 293 293 293 293 293 292 291 291 291 291 291 290 290 289 289 288 288 287 287 287 287 287 286 286 286 286 285 285 284 284 283 282 282 282 282 282 282 281 281 282 282 282 281 280 279 278 277 277 277 276 276 276 275 274 273 274 274 274 272 271 271 271 273
296 295 295 294 294 293 293 293 293 293 292 292 291 291 291 291 291 290 289 289 289 288 288 287 287 287 287 287 287 287 286 286 285 285 285 284 283 283 282 282 282 282 282 282 282 282 282 282 281 280 279 278 277 277 277 276 277 276 276 274 274 274 275 275 273 271 271 271 273
295 295 294 294 293 293 293 293 293 293 292 292 291 291 291 291 290 290 289 289 289 289 288 287 288 288 288 287 287 287 286 285 285 285 284 284 283 283 282 282 282 283 283 283 282 282 282 282 281 281 280 279 278 277 277 277 277 277 277 276 275 275 275 275 273 272 272 272 273
294 294 294 293 293 293 293 293 293 292 292 291 291 291 291 290 290 289 289 289 289 289 288 288 287 288 288 287 287 287 286 285 285 284 284 284 283 283 283 283 283 283 283 283 282 282 282 282 282 281 281 280 279 278 277 277 277 277 277 277 277 276 276 275 274 273 273 274 274
294 293 293 293 293 293 293 293 293 292 292 291 291 290 290 290 290 289 289 289 289 289 288 288 287 287 287 287 287 286 286 285 285 284 284 284 283 283 283 283 283 283 283 283 282 282 282 282 282 282 281 281 280 279 278 277 277 277 277 277 277 277 276 276 275 274 274 274 274
294 293 293 293 293 293 293 293 292 292 292 291 290 290 290 290 289 289 289 289 289 289 288 288 288 287 287 286 286 286 286 285 285 284 284 284 284 284 284 284 284 283 283 283 282 282 282 282 282 281 281 281 281 280 279 278 278 278 277 277 277 277 276 276 276 275 275 275 275
293 293 293 292 293 292 292 292 292 292 291 291 290 290 290 290 289 289 289 289 289 288 288 287 287 287 286 286 285 285 285 285 285 285 285 285 285 284 285 284 284 284 283 283 283 282 282 281 281 281 281 281 281 280 280 279 278 278 277 277 277 276 276 276 276 276 275 275 276
293 293 293 292 292 292 292 292 292 291 291 291 290 290 290 289 289 289 289 288 288 288 288 287 287 287 286 285 285 285 285 285 285 285 285 285 285 285 285 285 284 284 283 283 283 283 282 282 281 281 281 281 280 280 279 279 278 278 277 277 276 276 276 276 276 276 276 276 276
293 293 293 292 292 292 292 292 292 291 291 291 290 290 289 289 289 289 288 288 288 288 288 288 287 286 285 285 285 285 285 285 285 285 285 286 286 286 286 285 284 284 283 283 283 283 282 282 281 281 281 281 280 280 279 278 278 277 276 276 276 276 276 276 276 275 276 276 276
293 293 293 293 293 293 292 292 292 292 291 290 290 289 289 289 289 288 288 289 288 288 288 287 287 286 285 285 285 285 285 285 285 285 286 286 286 286 286 285 284 284 283 283 283 282 282 282 281 281 281 281 280 280 279 278 278 277 276 275 275 275 275 275 275 276 276 276 276
294 294 294 293 293 293 293 292 292 291 290 290 289 289 289 289 289 289 289 289 288 288 287 287 286 286 286 285 285 285 285 285 285 285 286 286 286 286 285 285 284 283 283 282 282 282 282 282 281 281 281 281 281 280 280 279 278 276 275 275 275 275 275 274 275 276 276 276 276
294 294 294 294 293 293 292 292 291 291 290 289 289 289 289 289 289 289 289 288 288 287 287 287 287 286 286 286 286 286 285 285 284 285 285 285 285 285 284 284 283 283 283 283 283 282 282 282 281 281 281 281 280 280 279 279 278 277 276 275 275 275 275 275 275 276 277 277 276
294 295 294 294 294 293 292 292 291 290 290 289 289 289 289 289 289 288 288 287 287 287 287 287 287 286 286 286 286 286 285 285 285 285 285 285 285 284 283 283 283 283 283 284 284 283 283 282 282 281 281 281 280 280 279 278 278 277 277 276 276 276 276 276 275 276 277 277 276
295 295 294 294 294 293 292 292 291 290 290 290 289 289 289 289 288 288 287 287 287 286 287 287 286 285 285 285 285 285 285 285 285 285 285 285 284 283 283 283 283 284 284 284 286 286 286 285 284 283 282 281 280 279 278 278 278 278 277 277 277 277 277 277 276 277 277 277 276
295 295 294 294 294 293 293 292 291 291 290 290 289 289 289 288 288 287 286 286 286 286 285 285 285 284 284 284 284 284 284 284 285 285 285 285 284 283 283 283 284 284 285 286 287 287 288 287 287 285 283 282 280 279 278 278 278 278 278 278 278 278 278 278 278 278 278 278 276
295 295 295 295 294 293 293 292 292 291 291 290 289 289 289 288 287 287 286 286 286 285 285 284 284 283 283 283 283 284 284 284 284 285 285 285 284 283 283 283 284 284 285 287 287 288 288 288 288 287 284 282 280 280 279 279 278 278 278 278 278 278 278 279 279 279 279 278 276
295 295 295 294 294 293 293 293 292 291 290 290 289 289 289 288 287 287 286 286 286 285 284 284 283 283 283 283 283 284 284 285 285 285 285 285 284 284 284 284 284 285 286 287 288 288 288 288 288 288 286 282 280 280 280 279 279 278 278 279 279 279 279 280 280 280 280 278 276
295 295 294 294 294 293 292 292 291 291 290 290 289 289 288 287 287 287 286 286 285 285 284 284 283 283 283 284 284 285 285 285 285 285 285 285 285 285 285 285 285 285 287 288 288 289 289 289 289 289 288 286 282 281 280 280 280 279 279 279 279 279 279 280 281 280 279 278 276
295 294 294 293 293 292 292 291 291 291 290 289 288 288 287 287 287 286 286 286 285 285 284 284 284 284 284 285 285 285 285 285 285 285 285 284 285 285 285 285 285 286 287 288 289 289 289 289 289 289 288 288 284 282 281 280 280 280 280 280 279 279 279 280 280 279 278 278 276
294 294 294 293 293 292 292 291 291 290 289 288 288 287 287 286 286 286 286 286 285 284 283 284 284 284 285 286 286 286 286 285 285 285 285 285 285 285 285 285 285 286 287 288 289 289 289 290 289 289 289 288 285 283 281 281 281 280 280 280 280 279 279 280 280 279 278 277 276
294 294 294 293 293 292 291 290 290 289 288 288 287 287 286 286 285 285 285 285 284 284 284 284 284 285 285 286 285 286 286 286 286 286 286 286 286 285 285 285 285 285 286 288 289 289 289 290 289 289 289 288 286 283 282 281 281 280 280 280 280 280 280 281 280 280 278 278 277
294 294 293 293 292 291 289 289 288 287 287 287 286 286 285 284 284 284 284 284 285 285 285 285 285 286 286 286 286 286 286 286 287 287 287 286 286 285 285 285 286 286 287 288 288 289 289 289 289 289 289 288 286 284 282 281 281 280 280 280 280 280 280 281 281 281 280 278 277
294 293 293 292 290 289 287 286 286 286 286 285 285 284 284 284 284 284 285 285 285 286 286 286 286 287 287 287 287 287 287 288 288 288 287 286 285 285 285 285 286 288 289 289 289 289 289 289 289 289 289 288 286 284 282 280 280 280 280 280 281 281 280 280 281 281 279 278 277
293 292 292 290 289 287 286 285 285 285 285 284 284 284 284 284 285 286 285 285 286 286 286 286 286 287 286 286 287 288 288 288 288 288 287 286 285 285 285 286 286 287 288 289 289 289 289 289 289 289 289 288 286 284 281 280 280 280 280 280 280 280 279 278 279 279 278 276 275
292 291 290 289 288 287 286 285 285 285 285 285 284 285 285 286 286 286 286 286 286 286 286 286 287 287 287 288 288 288 288 289 288 288 287 286 285 285 285 286 286 287 288 289 289 289 289 289 289 289 289 288 286 283 281 280 280 280 280 279 279 278 277 277 277 277 276 275 274
291 290 290 288 287 286 285 285 285 285 285 285 286 286 286 286 286 286 286 286 286 287 287 287 288 288 288 289 289 288 288 288 288 287 286 286 285 285 285 286 286 287 287 288 289 289 289 289 289 289 288 287 285 283 281 281 280 279 278 277 277 277 277 276 276 276 275 275 274
290 290 289 288 287 286 285 286 286 286 286 286 287 287 287 286 286 286 286 286 287 288 288 288 288 289 288 288 288 288 287 287 286 286 286 285 285 285 285 285 286 286 287 288 289 289 289 290 289 289 288 286 285 283 282 280 279 278 277 276 276 276 276 276 276 275 275 275 276
289 289 289 288 287 286 286 287 287 287 287 287 287 286 286 286 286 286 286 287 288 288 289 289 288 288 287 287 287 287 286 285 285 285 285 285 285 285 285 285 285 286 286 288 288 289 289 289 290 289 288 286 285 283 281 280 278 277 276 276 276 276 276 276 275 275 275 275 279
288 288 288 288 287 287 287 288 288 288 288 288 287 286 286 286 286 287 287 287 288 288 288 288 288 287 286 285 285 285 285 285 284 284 284 284 285 285 286 284 285 285 286 287 288 289 289 289 290 289 289 287 284 282 281 279 278 277 276 276 277 277 277 277 276 275 275 275 278
288 288 288 288 288 288 288 288 288 288 288 287 287 286 286 286 287 287 288 288 288 287 287 287 286 286 285 285 284 284 284 284 284 284 284 284 284 285 285 284 285 285 286 287 288 289 289 290 290 290 289 286 283 281 280 279 278 278 278 278 278 278 278 277 276 275 275 274 275
Wind_Speed
8 7 7 7 6 5 5 4 4 5 5 6 7 7 7 7 7 6 6 5 5 5 5 5 5 5 6 7 7 6 6 6 6 6 7 7 7 7 7 6 7 7 7 6 6 6 5 5 5 4 3 3 3 2 2 1 2 3 3 3 3 3 4 4 3 3 3 2 2
8 7 7 6 6 5 4 4 4 4 4 5 6 7 7 7 7 7 7 6 5 6 6 5 5 6 7 8 7 7 7 8 7 7 7 7 7 7 7 6 7 7 7 7 7 6 5 5 5 4 3 3 3 2 2 1 2 3 3 3 3 3 3 3 3 3 3 3 2
8 7 7 7 6 6 6 5 5 5 5 5 5 6 6 6 6 7 7 6 6 6 6 6 6 7 8 8 7 7 8 9 9 8 7 7 7 7 6 6 6 7 7 7 6 6 5 5 5 4 4 3 3 3 2 2 2 2 3 3 3 2 3 3 3 3 2 2 2
8 8 8 8 9 9 8 7 8 7 7 6 5 5 5 5 5 6 6 6 6 6 6 7 7 7 8 8 8 7 8 9 9 9 8 7 7 7 7 6 7 7 6 6 6 6 6 5 4 4 4 4 4 4 3 2 2 2 2 2 2 2 3 3 3 3 2 2 2
8 9 9 9 10 10 9 8 9 9 8 6 6 6 5 5 5 5 6 7 7 7 7 8 8 8 8 8 9 9 8 8 9 9 8 8 7 7 7 7 7 7 6 6 6 6 6 5 4 4 4 4 4 3 3 3 3 2 1 1 1 2 2 3 3 3 2 2 2
9 9 9 9 9 9 8 8 10 9 8 7 8 8 7 6 6 7 7 8 8 8 8 9 9 8 8 9 9 9 9 8 8 8 9 9 8 7 7 7 7 7 6 6 6 6 6 5 4 3 3 3 2 2 3 3 3 3 2 1 1 1 2 2 3 3 2 2 2
11 10 9 9 9 9 8 8 9 9 9 8 10 10 10 8 9 9 10 9 8 8 8 8 8 9 9 9 9 9 9 8 8 9 9 9 9 8 8 8 7 7 7 7 7 6 6 5 4 4 3 3 2 2 2 2 3 3 3 2 1 1 2 2 2 2 3 3 3
10 10 10 10 10 10 10 11 10 9 9 8 10 12 12 11 11 11 11 9 9 8 8 8 9 10 10 10 10 10 9 9 9 9 9 9 10 9 9 8 8 8 7 7 7 7 6 5 4 4 4 3 3 3 3 3 3 4 4 3 2 1 1 1 2 2 3 4 3
9 9 9 10 10 11 12 12 12 11 11 10 11 12 13 13 13 12 11 10 10 10 9 8 10 11 11 11 11 10 10 10 10 9 9 9 10 10 9 8 8 8 8 7 7 8 7 5 4 4 4 4 4 4 4 4 4 4 4 4 3 2 1 1 2 2 3 4 3
10 10 10 10 10 11 11 12 12 12 12 12 12 12 13 13 13 13 11 10 10 10 10 10 11 11 11 11 11 11 10 10 10 10 10 9 10 10 9 8 9 8 8 7 7 7 7 6 5 5 4 4 5 5 5 5 5 5 4 3 3 3 2 1 2 3 3 3 4
12 12 11 11 11 11 11 11 11 11 11 12 12 13 13 13 13 12 11 10 10 11 11 11 12 12 12 11 11 11 10 10 9 10 10 10 10 10 10 9 10 9 9 8 7 6 6 6 6 6 6 5 5 6 6 6 6 6 5 3 4 4 4 3 3 3 3 4 4
13 12 12 11 12 12 12 12 11 10 11 12 13 13 12 12 12 12 11 11 12 12 12 12 13 13 12 10 10 10 10 10 10 10 10 10 10 10 10 10 10 10 10 9 8 7 6 6 7 7 7 6 5 5 6 7 7 6 6 4 4 4 4 4 4 3 3 3 3
13 12 12 12 12 12 12 12 11 10 11 12 12 12 12 11 11 11 12 13 13 12 11 11 12 12 12 11 10 10 10 10 10 10 10 11 10 10 10 10 10 10 10 9 8 7 7 7 8 9 9 8 6 6 7 8 8 7 7 6 5 5 5 6 5 4 4 3 3
13 12 12 12 13 13 12 12 10 10 11 12 12 11 10 10 10 10 11 12 13 12 11 11 11 11 11 11 11 11 10 10 10 10 10 10 10 10 10 10 10 10 10 9 8 8 9 9 9 10 10 9 9 8 8 8 8 8 8 8 7 7 7 6 6 5 5 4 4
12 13 13 13 13 12 12 11 10 9 10 11 10 10 9 8 9 9 10 12 12 11 11 11 10 10 10 11 11 11 11 10 10 10 10 10 10 10 10 10 10 10 9 9 9 9 10 10 10 10 10 10 10 10 9 9 9 9 9 9 9 9 8 7 6 6 6 6 5
13 13 13 13 13 12 11 11 9 9 9 10 10 9 9 8 8 9 9 11 10 10 10 11 10 9 9 9 10 10 10 10 10 10 10 10 10 10 11 10 11 10 10 10 9 9 9 10 10 10 10 10 10 10 10 10 9 9 9 9 9 9 8 8 7 7 7 7 6
13 13 13 14 14 14 12 11 9 9 10 11 11 10 9 9 9 9 9 10 9 9 10 11 10 9 8 8 8 8 9 9 10 10 10 11 11 11 11 11 11 11 11 10 10 10 10 9 9 9 10 10 10 10 11 11 10 10 9 9 9 8 8 8 8 8 8 7 7
14 14 14 14 15 15 14 13 11 11 11 12 12 11 10 10 10 10 9 10 10 11 11 11 10 9 9 9 7 7 8 9 10 10 10 11 11 12 12 12 11 11 11 11 11 11 11 11 10 9 9 9 9 10 10 10 10 10 9 9 8 8 8 7 8 8 8 8 8
14 15 15 15 16 15 15 14 13 13 13 12 12 11 11 11 11 11 10 10 10 11 12 12 10 9 9 9 8 8 8 9 10 11 11 11 11 11 11 11 10 10 10 11 11 11 11 11 10 10 9 9 9 9 9 9 9 9 9 8 8 8 7 7 7 7 7 8 8
15 16 16 16 16 16 15 15 14 13 13 12 12 12 12 12 12 12 12 11 11 11 12 12 11 10 9 9 9 9 9 8 10 10 10 10 10 11 11 11 10 10 10 10 10 11 11 10 10 10 10 9 9 9 9 9 9 8 8 7 7 7 7 7 7 7 7 8 8
16 16 17 16 16 16 15 15 14 13 13 12 12 12 12 12 12 12 13 13 12 11 11 11 11 11 10 10 10 10 9 8 9 9 9 9 10 10 10 9 9 9 9 9 10 10 10 10 10 10 10 10 10 9 9 9 8 8 8 7 6 6 7 7 7 7 7 8 8
16 16 16 16 15 15 14 14 13 12 12 12 12 12 12 12 12 13 13 12 12 11 11 11 11 12 12 12 11 11 9 7 7 7 8 8 8 9 8 7 7 8 8 9 9 10 10 9 9 9 9 9 10 10 9 9 9 8 8 7 6 6 6 6 7 7 8 8 8
15 15 14 14 14 13 13 12 12 12 12 12 12 12 12 12 12 12 11 10 10 10 10 10 10 11 12 12 11 10 9 7 7 6 6 6 7 7 7 6 7 8 8 9 9 9 9 9 9 9 9 9 9 10 10 9 9 8 8 8 7 7 6 6 6 7 7 8 7
14 14 13 12 12 12 12 11 11 11 12 12 12 12 12 12 11 10 9 9 10 10 10 9 9 9 10 9 9 9 8 8 7 7 6 6 6 6 5 5 6 7 8 8 9 9 9 8 8 8 9 9 9 9 9 9 8 8 8 9 8 8 7 7 7 7 8 8 7
14 13 13 12 13 12 12 12 12 12 12 12 12 11 11 11 10 9 9 9 9 10 10 9 8 7 7 6 6 7 7 7 7 7 7 7 6 5 5 5 6 6 7 7 10 12 12 10 9 8 8 8 8 8 8 8 8 9 9 9 9 9 8 8 8 8 8 8 7
13 13 14 14 13 13 13 12 12 12 11 11 11 11 11 10 9 9 9 9 9 9 8 8 6 5 5 5 5 5 5 5 5 6 7 7 6 5 5 5 6 6 6 8 11 13 14 14 13 10 8 8 8 7 7 7 8 9 9 10 10 9 9 9 9 9 9 8 7
13 14 14 13 13 13 13 12 12 11 11 10 11 11 10 9 8 8 8 9 8 7 6 6 5 5 5 5 5 5 5 4 5 6 7 6 6 6 6 6 6 6 7 10 12 13 14 15 15 14 11 7 7 8 8 7 8 9 9 9 10 10 10 11 10 10 9 7 7
13 14 14 13 13 13 12 11 11 11 11 10 11 10 10 9 8 8 8 7 6 6 5 5 4 4 4 4 5 6 6 6 6 6 6 5 5 6 7 7 7 7 9 11 13 14 15 16 16 16 13 9 8 7 8 8 8 8 8 9 9 10 10 10 9 9 8 7 6
13 13 13 13 13 12 11 11 11 11 11 10 10 9 9 8 9 8 8 7 7 6 5 4 4 4 4 4 5 6 6 6 6 5 5 4 5 6 8 8 8 9 10 13 14 14 15 16 16 17 16 13 9 7 7 7 7 7 8 8 9 9 9 9 8 7 7 6 6
11 12 12 12 12 11 11 11 11 11 10 9 9 9 9 8 8 8 8 8 7 6 5 5 4 4 5 6 6 6 5 5 4 4 4 4 5 7 8 9 8 9 10 13 14 15 15 16 16 16 16 16 11 8 7 7 7 7 8 8 9 9 9 8 7 7 6 6 6
10 10 11 11 11 11 10 10 10 10 9 8 8 9 9 9 9 8 8 8 6 5 4 5 5 5 6 6 5 5 4 3 3 3 4 5 7 8 9 9 9 9 10 12 13 14 15 15 16 16 16 17 12 9 7 7 8 8 8 8 9 9 9 8 8 8 8 7 6
9 9 10 10 10 10 10 9 9 9 9 9 9 9 9 9 8 7 6 6 5 5 5 5 5 5 5 5 4 4 3 3 4 5 5 5 7 8 8 8 8 8 9 11 12 13 14 15 15 15 16 17 13 10 8 8 8 8 8 8 9 10 9 8 8 8 9 9 8
8 9 10 11 10 10 9 9 8 8 9 9 9 9 8 7 6 5 5 5 6 6 6 6 7 7 6 5 4 3 4 5 5 4 4 5 6 7 7 7 7 8 9 11 12 12 13 14 15 15 16 17 13 10 9 8 7 7 7 8 9 10 10 10 9 9 9 9 8
10 10 11 11 10 9 9 8 8 8 8 8 8 8 8 7 6 6 6 5 5 5 6 6 6 6 5 4 4 4 3 3 1 2 4 6 6 6 6 6 6 7 8 10 11 12 13 14 14 15 16 16 12 9 8 8 7 7 7 9 9 9 9 9 8 7 7 7 7
12 12 11 11 10 9 9 8 8 8 8 8 7 7 7 7 7 7 6 5 4 4 4 4 4 4 4 3 3 2 2 1 1 3 5 6 5 5 6 6 7 8 9 11 11 12 13 14 15 15 15 13 9 8 8 8 8 8 9 9 9 8 6 6 5 4 4 5 5
12 12 11 10 9 9 9 9 9 9 8 8 7 7 7 6 6 6 6 5 5 4 4 4 3 3 3 2 2 2 1 1 2 4 6 6 5 5 5 7 7 8 10 11 12 13 13 14 15 15 13 10 7 7 7 8 8 8 8 8 7 5 4 3 3 3 3 4 5
12 11 11 10 10 10 10 10 9 9 9 8 7 7 7 6 5 4 4 4 5 5 4 4 4 3 3 2 1 1 0 1 3 5 6 6 5 5 5 6 7 9 10 11 12 13 14 14 15 13 11 8 7 7 7 7 6 6 6 6 5 4 3 3 4 4 4 5 6
11 11 11 11 11 10 10 9 10 9 9 9 7 7 6 6 5 4 3 4 4 5 5 4 4 3 3 2 1 0 1 2 3 5 6 6 5 5 6 6 7 8 9 11 12 13 14 14 14 13 11 8 7 7 7 6 5 5 5 5 4 4 4 4 4 5 6 7 9
10 11 12 12 11 10 10 10 10 10 10 9 7 6 6 5 4 4 4 3 4 5 5 4 3 3 3 2 2 1 2 3 4 4 5 6 6 6 6 6 7 8 9 11 12 13 13 14 14 13 12 9 7 7 6 5 5 5 5 5 4 4 5 5 5 5 6 9 12
10 10 11 11 11 11 10 10 10 10 9 9 8 7 6 5 4 4 3 4 5 5 5 4 3 3 3 3 1 1 3 4 4 4 5 5 6 6 6 6 8 9 10 11 12 13 13 14 14 13 12 8 7 6 5 5 5 6 6 5 5 5 5 5 5 5 6 7 10
8 9 10 10 11 11 11 11 10 9 8 8 8 7 6 5 4 4 4 6 6 5 4 4 4 3 3 2 1 1 3 5 5 5 4 5 6 6 6 6 8 9 10 11 12 12 13 13 13 12 11 8 6 6 5 5 6 6 7 7 6 5 5 4 4 4 5 5 6
Wind_Direction
164 164 164 164 164 163 161 155 155 156 157 156 155 154 153 151 150 151 153 156 158 160 162 165 166 163 160 160 161 158 153 147 143 139 138 139 143 147 149 149 147 146 144 144 142 138 133 130 126 122 121 119 116 114 111 117 131 133 132 133 139 143 144 141 148 155 160 160 166
165 161 157 155 153 149 145 143 147 151 154 156 154 154 154 153 151 152 154 159 160 160 159 162 162 160 160 164 163 158 153 149 146 143 142 144 149 152 153 154 153 151 149 148 145 142 139 135 130 128 128 125 118 118 125 152 147 139 136 141 148 148 145 145 157 163 165 164 171
162 157 153 152 153 152 151 151 153 153 152 151 151 151 152 152 152 153 155 158 157 157 157 160 161 161 162 164 164 160 156 153 149 147 146 150 154 156 158 158 157 155 153 150 149 147 144 141 136 136 138 139 134 137 150 185 171 150 142 151 154 151 146 151 160 164 163 162 170
161 159 159 160 161 161 161 159 157 155 153 149 147 147 149 151 151 150 150 150 152 157 162 162 162 163 164 164 164 163 159 154 150 148 149 154 159 162 163 160 159 158 157 153 150 148 147 145 141 141 143 146 147 152 161 175 170 155 147 156 152 149 149 153 158 160 159 160 171
167 168 168 168 167 165 162 159 157 155 153 149 147 148 149 149 148 147 147 151 160 166 168 164 162 162 163 162 162 162 160 156 152 151 153 157 163 166 167 164 163 163 162 157 153 151 149 145 142 144 147 151 154 160 166 163 152 144 133 139 144 148 149 152 158 159 156 154 167
173 174 172 169 165 161 157 156 155 154 153 151 150 152 153 155 155 156 158 161 165 167 165 162 159 159 159 161 161 161 161 160 157 155 155 159 165 168 170 170 168 166 165 162 157 154 151 145 144 145 150 151 152 159 160 150 144 136 129 130 154 150 147 154 160 158 151 148 158
174 173 171 168 163 159 155 155 154 153 152 152 155 157 159 161 162 163 163 162 161 161 162 162 160 159 160 162 163 163 164 165 162 160 159 161 166 170 172 175 172 170 168 165 161 158 155 150 148 151 155 152 149 156 160 155 145 137 136 147 167 161 152 161 161 152 146 149 160
173 172 170 167 164 160 157 156 155 155 156 159 162 163 163 163 165 164 163 159 160 162 165 165 164 164 164 166 167 167 167 167 166 166 165 164 167 171 174 175 173 174 173 170 166 164 163 158 155 157 161 160 161 167 173 170 153 146 146 157 168 167 157 160 152 146 147 151 161
172 171 169 167 165 163 161 159 159 160 162 166 167 166 165 165 165 165 163 163 165 165 164 166 167 167 167 168 170 170 171 170 170 171 171 168 169 171 173 174 175 177 178 175 171 168 166 163 163 165 167 168 170 176 178 174 161 155 155 161 165 167 159 145 139 142 145 150 164
171 170 168 167 167 165 162 162 163 164 165 166 167 167 167 168 168 168 167 166 163 163 164 166 167 169 170 172 173 174 174 174 173 174 174 173 172 172 173 175 177 178 180 182 177 171 167 165 167 171 173 173 172 175 178 177 167 163 163 165 162 162 164 164 148 148 152 158 173
171 170 169 169 168 165 163 163 166 167 168 167 168 169 171 172 172 171 167 161 160 163 167 168 168 170 173 176 177 177 177 176 176 176 176 178 176 176 176 177 178 179 180 183 180 175 171 169 170 174 179 182 177 176 178 180 171 168 167 168 163 163 168 179 168 161 160 165 177
171 170 169 169 167 165 164 165 168 171 171 170 170 172 174 176 175 170 164 158 162 166 169 170 171 173 176 179 180 179 178 178 178 178 179 181 181 180 179 179 180 181 181 182 181 179 176 175 174 178 182 187 185 183 181 181 176 172 170 172 170 171 177 184 179 171 162 159 174
169 168 168 167 166 166 167 169 171 173 174 173 173 174 176 177 174 169 164 162 165 168 170 173 175 176 178 179 180 180 180 180 180 181 182 183 183 182 182 182 183 183 183 183 182 181 180 180 179 180 183 188 192 191 188 184 180 178 177 177 179 184 188 189 180 168 157 153 175
167 167 167 166 167 169 170 172 173 174 175 175 175 174 175 175 173 170 167 167 168 169 170 174 178 181 182 180 180 180 180 181 181 183 184 185 185 184 184 186 186 187 187 185 185 185 185 185 185 184 185 188 193 196 194 189 187 184 183 182 186 192 194 190 176 164 159 167 186
167 168 168 167 169 171 173 174 174 174 174 174 174 173 172 172 174 174 172 171 170 169 170 173 181 185 186 183 180 180 180 180 182 184 186 187 187 187 187 189 190 190 189 187 188 190 191 189 189 189 189 190 194 196 197 196 194 192 189 188 190 193 193 188 174 167 169 176 187
168 169 169 169 172 173 174 175 173 172 173 174 173 172 171 172 175 176 176 173 171 171 172 177 182 186 187 186 183 180 179 180 183 186 187 189 189 190 191 192 193 193 191 188 191 195 199 196 194 193 193 194 195 196 197 199 200 199 197 194 192 191 189 183 174 174 177 179 186
171 171 172 173 175 176 176 175 173 173 173 174 173 173 173 172 174 177 178 176 172 173 177 182 183 184 185 187 185 181 180 182 185 188 190 191 191 193 195 196 196 195 192 190 193 198 203 205 202 199 198 197 197 197 198 200 202 203 201 198 194 191 187 180 176 177 179 181 189
174 175 175 177 178 178 177 176 174 174 174 174 174 174 174 172 174 177 180 178 175 176 179 184 184 184 184 185 185 184 184 185 189 192 194 193 194 195 197 200 198 196 193 192 195 199 203 206 206 205 204 203 202 200 200 200 203 204 203 200 195 190 185 178 177 176 178 183 194
177 178 179 181 181 180 178 177 175 175 175 175 174 174 174 174 174 176 179 181 180 179 180 182 184 185 185 185 185 187 189 190 193 195 196 196 196 197 200 202 200 197 195 196 199 202 204 206 206 206 207 208 208 206 204 203 205 205 204 199 194 189 184 179 178 177 179 184 193
181 181 182 183 182 181 179 178 177 175 174 174 174 174 175 176 175 176 179 183 184 182 181 180 182 185 187 186 187 190 193 195 195 197 198 198 199 201 203 203 201 198 198 200 203 206 207 207 207 207 208 209 210 210 209 207 208 207 204 199 194 188 183 179 177 178 181 186 191
184 184 184 184 182 181 181 179 177 174 172 172 173 174 176 176 178 180 182 183 183 182 182 182 182 184 186 187 189 193 197 199 198 198 199 199 202 205 206 204 200 199 201 204 208 209 210 210 209 209 209 210 211 211 210 208 208 207 204 199 194 187 181 176 177 180 185 189 191
187 186 184 183 183 182 180 178 175 172 171 171 173 175 175 177 181 184 184 182 180 181 184 185 185 186 187 188 190 193 196 198 199 200 201 201 206 208 208 203 199 200 204 209 212 213 213 213 212 211 211 212 214 213 211 208 207 204 201 197 192 186 181 178 180 185 190 193 193
186 185 183 183 182 181 178 175 173 171 170 171 173 175 177 180 184 185 183 180 180 183 186 189 189 189 190 189 190 190 191 192 197 203 206 208 212 212 210 203 200 203 208 213 214 214 215 216 216 215 214 214 216 216 213 209 204 200 197 194 191 188 186 186 189 193 196 198 196
184 182 181 180 180 178 176 173 171 171 171 172 174 176 179 182 183 182 181 180 183 187 190 192 193 192 190 188 187 185 185 187 194 203 211 217 218 216 212 207 208 212 215 218 216 213 212 213 215 215 216 216 217 216 213 208 203 198 195 193 192 192 193 195 197 199 202 203 200
181 180 179 179 178 177 176 174 173 173 174 174 175 177 179 182 181 180 180 182 186 189 192 194 192 188 183 179 179 179 180 183 190 201 212 220 221 219 217 216 219 222 224 225 222 218 215 213 213 213 214 215 216 216 212 207 202 199 196 194 192 193 196 201 203 206 206 205 202
180 179 179 179 177 177 177 176 176 175 174 172 174 176 180 181 179 178 180 184 188 190 191 190 184 176 168 166 166 169 173 180 191 203 212 218 218 220 222 225 227 229 231 231 227 223 220 219 217 215 211 211 211 210 209 208 204 201 199 197 194 194 196 200 205 208 210 208 205
179 180 180 178 176 176 177 176 174 173 172 172 174 178 181 179 176 177 180 185 186 185 183 180 172 162 156 154 157 162 170 180 195 208 214 214 215 219 224 228 230 232 232 231 229 227 224 223 221 219 214 209 207 206 207 208 205 203 201 201 199 198 198 199 202 206 209 211 209
180 180 179 176 176 176 175 172 172 172 174 175 177 179 178 174 173 176 180 183 179 175 172 171 160 150 145 149 158 166 174 183 197 205 210 212 218 225 230 233 234 234 233 231 230 229 228 226 225 221 217 209 206 206 206 205 203 203 203 204 204 203 202 201 200 201 203 207 210
180 178 175 174 174 174 172 170 172 175 176 176 176 174 171 169 171 175 177 177 173 172 171 167 152 144 145 156 167 173 180 189 195 198 202 212 226 235 239 239 239 238 235 232 231 231 230 228 227 223 218 211 207 206 206 206 203 203 204 207 207 206 204 202 199 198 198 201 208
178 174 173 173 172 172 171 173 174 174 174 172 169 166 166 167 171 174 176 175 175 174 168 155 147 150 160 171 175 180 186 193 192 191 198 212 231 241 244 243 242 242 240 236 234 233 232 231 228 225 220 212 208 206 206 206 204 204 205 207 207 204 202 199 197 196 196 197 205
173 171 170 170 171 171 173 174 173 170 167 164 163 163 166 169 174 177 177 175 170 159 145 137 146 158 171 178 177 180 185 190 189 193 202 216 233 242 247 248 247 247 245 241 239 237 236 234 231 227 222 214 209 207 207 208 206 206 206 207 204 200 197 196 198 197 195 193 201
169 168 167 168 171 172 172 172 169 165 161 159 161 164 168 171 173 173 168 160 147 137 132 139 154 166 176 177 174 175 180 187 195 201 209 221 237 245 250 253 252 252 251 248 245 242 240 237 234 229 224 215 211 209 208 208 208 208 207 205 200 196 194 195 199 198 195 192 196
165 166 167 170 171 170 168 167 163 160 157 158 161 163 165 165 159 153 147 142 140 142 148 158 167 172 173 168 165 171 184 195 200 209 224 237 244 249 254 258 257 255 252 250 247 245 242 239 235 231 225 216 213 210 208 207 208 208 207 205 201 197 196 198 200 198 194 192 193
166 169 170 172 169 166 162 160 156 153 152 154 157 158 156 152 148 146 146 146 147 151 158 164 166 162 156 149 157 170 181 185 201 257 263 255 252 252 254 258 259 256 253 251 249 246 243 239 236 231 226 217 213 208 205 205 207 208 207 206 204 202 202 204 203 198 191 187 187
170 172 172 170 165 159 155 152 150 148 148 150 151 151 150 149 151 153 153 150 145 143 145 146 137 130 131 145 156 151 131 56 315 281 268 259 255 253 254 256 260 259 256 255 252 249 245 241 237 232 226 217 211 205 202 203 207 208 208 207 207 207 207 208 202 189 176 171 175
172 171 169 165 159 155 152 151 149 148 148 148 148 148 148 150 150 149 146 138 131 127 126 123 117 116 120 130 121 105 75 344 283 270 264 258 254 253 255 258 263 262 260 258 255 252 248 245 240 234 226 215 207 202 201 203 207 209 208 207 209 207 202 190 172 156 151 158 169
169 166 163 159 156 155 153 151 149 149 148 148 148 148 148 145 140 137 135 134 130 127 124 116 106 102 102 103 96 90 338 276 264 263 262 259 253 252 256 260 265 265 264 261 257 254 251 248 243 234 224 211 204 201 201 204 206 205 203 203 203 194 177 162 157 157 163 174 179
165 162 159 158 157 155 153 151 149 148 148 147 147 146 142 136 134 139 148 152 132 118 106 93 94 99 106 107 95 42 305 268 254 254 258 260 255 253 255 262 266 267 266 263 260 256 253 249 243 233 220 207 202 200 199 199 200 197 195 193 189 179 171 168 168 173 181 189 192
162 161 159 157 154 152 150 149 148 147 145 144 141 137 131 127 133 149 160 150 114 100 95 96 104 108 105 91 70 4 296 268 250 246 249 257 257 257 256 260 264 267 267 265 262 258 254 251 244 232 218 205 200 196 193 189 191 191 190 186 183 183 184 185 184 187 193 198 201
158 157 154 152 149 148 147 146 145 144 142 139 135 130 127 126 133 140 136 103 89 90 97 106 105 99 90 82 71 307 278 270 258 249 246 253 260 262 260 258 262 266 268 268 265 262 258 253 246 231 217 203 195 188 182 179 184 189 193 194 192 195 199 200 197 197 200 204 205
150 147 145 143 143 143 143 142 141 139 135 130 127 126 126 127 126 117 99 83 83 87 95 101 96 91 88 91 118 244 263 271 269 264 260 260 265 265 263 258 262 266 269 271 269 266 262 258 249 233 215 198 186 178 173 172 183 194 202 205 202 202 205 207 206 208 210 211 210